Weather History for Savanna, IL

Change the Weather History Date:

Monday, September 23, 2013

  Actual Average (KCWI) Record (KCWI)
Temperature  
Mean Temperature 60 °F -  
Max Temperature 75 °F 69 °F 87 °F (2007)
Min Temperature 44 °F 47 °F 30 °F (2012)
Degree Days  
Heating Degree Days 6    
Growing Degree Days 10 (Base 50)    
Moisture  
Dew Point 46 °F    
Average Humidity 66    
Maximum Humidity 95    
Minimum Humidity 33    
Precipitation  
Precipitation 0.00 in - - ()
Sea Level Pressure  
Sea Level Pressure 30.03 in    
Wind  
Wind Speed 5 mph (East)    
Max Wind Speed 12 mph    
Max Gust Speed 16 mph    
Visibility 10 miles    
Events      
Averages and records for this station are not official NWS values.
T = Trace of Precipitation, MM = Missing Value Source: NWS Daily Summary

Daily Weather History Graph

Daily Weather History Graph

Search for Another Location

Airport:

Trip Planner

Search our weather history database for the weather conditions in past years. The results will help you decide how hot, cold, wet, or windy it might be!

Date:

Astronomy

Sep. 23, 2013 Rise Set
Actual Time 6:49 AM CDT 6:55 PM CDT
Civil Twilight 6:21 AM CDT 7:23 PM CDT
Nautical Twilight 5:48 AM CDT 7:55 PM CDT
Astronomical Twilight 5:15 AM CDT 8:29 PM CDT
Moon 9:22 PM CDT (9/23) 11:13 AM CDT (9/23)
Length of Visible Light 13h 02m
Length of Day
12h 06m
Waning Gibbous, 81% of the Moon is Illuminated
Sep 23
Waning Gibbous
Sep 26
Last Quarter
Oct 4
New
Oct 11
First Quarter
Oct 18
Full

Hourly Weather History & Observations

Time (CDT) Temp. Windchill Dew Point Humidity Pressure Visibility Wind Dir Wind Speed Gust Speed Precip Events Conditions
12:15 AM 52.2 °F - 46.6 °F 81% 30.04 in 10.0 mi Calm Calm - N/A   Clear
12:35 AM 52.2 °F - 46.4 °F 81% 30.04 in 10.0 mi SE 6.9 mph - N/A   Clear
12:55 AM 52.2 °F - 46.2 °F 80% 30.04 in 10.0 mi North 3.5 mph - N/A   Clear
1:15 AM 50.9 °F - 46.0 °F 83% 30.04 in 10.0 mi Calm Calm - N/A   Clear
1:35 AM 49.1 °F - 45.3 °F 87% 30.04 in 10.0 mi NE 3.5 mph - N/A   Clear
1:55 AM 49.6 °F - 46.2 °F 88% 30.04 in 10.0 mi NE 3.5 mph - N/A   Clear
2:15 AM 47.7 °F - 45.0 °F 90% 30.04 in 10.0 mi NE 4.6 mph - N/A   Clear
2:35 AM 47.3 °F - 44.8 °F 91% 30.04 in 10.0 mi NE 4.6 mph - N/A   Clear
2:55 AM 46.6 °F - 44.6 °F 93% 30.04 in 10.0 mi NNE 4.6 mph - N/A   Clear
3:15 AM 46.4 °F 44.3 °F 44.2 °F 92% 30.04 in 10.0 mi NE 4.6 mph - N/A   Clear
3:35 AM 45.9 °F 44.6 °F 43.9 °F 93% 30.04 in 10.0 mi NE 3.5 mph - N/A   Clear
3:55 AM 45.7 °F 44.4 °F 43.9 °F 93% 30.05 in 10.0 mi NE 3.5 mph - N/A   Clear
4:15 AM 45.5 °F 43.2 °F 43.9 °F 94% 30.05 in 10.0 mi NE 4.6 mph - N/A   Clear
4:35 AM 45.7 °F 44.4 °F 44.1 °F 94% 30.05 in 10.0 mi NNE 3.5 mph - N/A   Clear
4:55 AM 45.9 °F 44.6 °F 43.9 °F 93% 30.05 in 10.0 mi NE 3.5 mph - N/A   Clear
5:15 AM 45.7 °F 44.4 °F 43.9 °F 93% 30.05 in 7.0 mi NE 3.5 mph - N/A   Clear
5:35 AM 44.8 °F 42.4 °F 43.3 °F 95% 30.05 in 7.0 mi NE 4.6 mph - N/A   Clear
5:55 AM 45.0 °F 43.5 °F 43.3 °F 94% 30.06 in 7.0 mi NE 3.5 mph - N/A   Clear
6:15 AM 45.0 °F 42.6 °F 43.3 °F 94% 30.06 in 7.0 mi ENE 4.6 mph - N/A   Clear
6:35 AM 46.0 °F - 44.4 °F 94% 30.07 in 7.0 mi Calm Calm - N/A   Clear
6:55 AM 46.0 °F 44.8 °F 44.2 °F 93% 30.07 in 7.0 mi NE 3.5 mph - N/A   Clear
7:15 AM 46.6 °F - 44.6 °F 93% 30.07 in 7.0 mi Calm Calm - N/A   Clear
7:35 AM 47.7 °F - 45.1 °F 91% 30.07 in 10.0 mi NE 3.5 mph - N/A   Clear
7:55 AM 48.9 °F - 46.2 °F 90% 30.07 in 7.0 mi East 3.5 mph - N/A   Clear
8:15 AM 50.5 °F - 46.0 °F 85% 30.08 in 10.0 mi Calm Calm - N/A   Clear
8:35 AM 52.9 °F - 46.8 °F 80% 30.08 in 10.0 mi Calm Calm - N/A   Clear
8:55 AM 54.7 °F - 47.5 °F 77% 30.09 in 10.0 mi Calm Calm - N/A   Clear
9:15 AM 56.7 °F - 46.4 °F 69% 30.09 in 10.0 mi SE 4.6 mph - N/A   Clear
9:35 AM 58.6 °F - 46.8 °F 65% 30.10 in 10.0 mi SE 6.9 mph - N/A   Clear
9:55 AM 60.4 °F - 46.9 °F 61% 30.10 in 10.0 mi SSE 6.9 mph - N/A   Clear
10:15 AM 61.9 °F - 46.8 °F 58% 30.10 in 10.0 mi SE 8.1 mph - N/A   Clear
10:35 AM 62.8 °F - 46.9 °F 56% 30.10 in 10.0 mi ESE 6.9 mph - N/A   Clear
10:55 AM 64.8 °F - 47.5 °F 53% 30.09 in 10.0 mi ESE 6.9 mph - N/A   Clear
11:15 AM 66.6 °F - 46.9 °F 49% 30.09 in 10.0 mi SE 6.9 mph - N/A   Clear
11:35 AM 67.8 °F - 47.1 °F 47% 30.08 in 10.0 mi SSE 5.8 mph - N/A   Clear
11:55 AM 68.7 °F - 46.9 °F 46% 30.07 in 10.0 mi ESE 6.9 mph - N/A   Clear
12:15 PM 70.0 °F - 47.1 °F 44% 30.07 in 10.0 mi SE 5.8 mph - N/A   Clear
12:35 PM 70.7 °F - 46.9 °F 43% 30.06 in 10.0 mi SSE 8.1 mph - N/A   Clear
1:15 PM 72.0 °F - 45.7 °F 39% 30.04 in 10.0 mi East 5.8 mph - N/A   Clear
1:35 PM 73.0 °F - 46.8 °F 39% 30.04 in 10.0 mi SE 11.5 mph - N/A   Clear
1:55 PM 73.6 °F - 45.5 °F 37% 30.03 in 10.0 mi ESE 6.9 mph - N/A   Clear
2:15 PM 74.3 °F - 45.0 °F 35% 30.03 in 10.0 mi SE 5.8 mph - N/A   Clear
2:35 PM 74.3 °F - 45.1 °F 35% 30.02 in 10.0 mi ESE 9.2 mph - N/A   Clear
2:55 PM 74.5 °F - 45.5 °F 36% 30.01 in 10.0 mi SE 9.2 mph - N/A   Clear
3:15 PM 74.8 °F - 45.1 °F 35% 30.00 in 10.0 mi SE 8.1 mph - N/A   Clear
3:35 PM 75.2 °F - 44.6 °F 34% 29.99 in 10.0 mi East 8.1 mph - N/A   Clear
3:55 PM 75.4 °F - 44.4 °F 33% 29.99 in 10.0 mi East 6.9 mph - N/A   Clear
4:15 PM 74.7 °F - 44.4 °F 34% 29.99 in 10.0 mi SE 5.8 mph - N/A   Clear
4:35 PM 75.0 °F - 44.6 °F 34% 29.99 in 10.0 mi SE 8.1 mph - N/A   Clear
4:55 PM 74.5 °F - 43.5 °F 33% 29.99 in 10.0 mi ESE 9.2 mph - N/A   Clear
5:15 PM 73.6 °F - 43.7 °F 34% 29.99 in 10.0 mi SE 8.1 mph - N/A   Clear
5:35 PM 73.4 °F - 44.6 °F 36% 29.99 in 10.0 mi ESE 8.1 mph - N/A   Clear
5:55 PM 72.3 °F - 45.5 °F 38% 29.99 in 10.0 mi ESE 6.9 mph - N/A   Clear
6:15 PM 70.7 °F - 46.2 °F 42% 29.99 in 10.0 mi ESE 6.9 mph - N/A   Clear
6:35 PM 67.8 °F - 48.0 °F 49% 29.99 in 10.0 mi East 5.8 mph - N/A   Clear
6:55 PM 64.4 °F - 48.2 °F 56% 29.99 in 10.0 mi East 5.8 mph - N/A   Clear
7:15 PM 62.6 °F - 48.6 °F 60% 29.99 in 10.0 mi East 6.9 mph - N/A   Clear
7:35 PM 61.9 °F - 48.6 °F 62% 29.99 in 10.0 mi East 6.9 mph - N/A   Clear
7:55 PM 61.9 °F - 48.4 °F 61% 29.99 in 10.0 mi East 9.2 mph - N/A   Clear
8:15 PM 61.5 °F - 48.2 °F 62% 29.99 in 10.0 mi East 8.1 mph - N/A   Clear
8:35 PM 61.0 °F - 48.2 °F 63% 29.99 in 10.0 mi East 8.1 mph - N/A   Clear
8:55 PM 60.4 °F - 47.8 °F 63% 29.99 in 10.0 mi East 9.2 mph - N/A   Clear
9:15 PM 59.9 °F - 47.7 °F 64% 29.99 in 10.0 mi East 9.2 mph - N/A   Clear
9:35 PM 58.6 °F - 47.5 °F 66% 30.00 in 10.0 mi East 8.1 mph - N/A   Clear
9:55 PM 58.6 °F - 46.9 °F 65% 30.00 in 10.0 mi East 10.4 mph 16.1 mph N/A   Clear
10:15 PM 57.2 °F - 47.5 °F 70% 30.00 in 10.0 mi East 11.5 mph - N/A   Clear
10:35 PM 56.8 °F - 47.8 °F 72% 30.00 in 10.0 mi East 9.2 mph - N/A   Clear
10:55 PM 55.8 °F - 48.0 °F 75% 30.00 in 10.0 mi East 11.5 mph - N/A   Clear
11:15 PM 55.4 °F - 48.2 °F 77% 30.00 in 10.0 mi East 10.4 mph - N/A   Clear
11:35 PM 54.7 °F - 48.2 °F 79% 30.01 in 10.0 mi East 9.2 mph - N/A   Clear
11:55 PM 54.7 °F - 48.4 °F 79% 30.00 in 10.0 mi East 8.1 mph - N/A   Clear